Weather History for Wolf Point, MT

Change the Weather History Date:

Friday, December 7, 2012

  Actual Average Record
Temperature  
Mean Temperature 18 °F -  
Max Temperature 21 °F 29 °F 44 °F (1999)
Min Temperature 14 °F 6 °F -30 °F (2013)
Degree Days  
Heating Degree Days 47    
Cooling Degree Days 0    
Moisture  
Dew Point 17 °F    
Average Humidity 91    
Maximum Humidity 100    
Minimum Humidity 86    
Precipitation  
Precipitation 0.01 in 0.01 in 0.14 in (2003)
Month to date precipitation 0.01 0.07  
Year to date precipitation 10.16 11.95  
Sea Level Pressure  
Sea Level Pressure 29.94 in    
Wind  
Wind Speed 10 mph (ENE)    
Max Wind Speed 14 mph    
Max Gust Speed -    
Visibility 4 miles    
Events Fog , Snow    
T = Trace of Precipitation, MM = Missing Value Source: NWS Daily Summary

Daily Weather History Graph

Daily Weather History Graph

Search for Another Location

Airport:

Trip Planner

Search our weather history database for the weather conditions in past years. The results will help you decide how hot, cold, wet, or windy it might be!

Date:

Astronomy

Dec. 07, 2012 Rise Set
Actual Time 7:39 AM MST 4:08 PM MST
Civil Twilight 7:02 AM MST 4:45 PM MST
Nautical Twilight 6:23 AM MST 5:24 PM MST
Astronomical Twilight 5:45 AM MST 6:02 PM MST
Moon 12:35 AM MST (12/7) 12:30 PM MST (12/7)
Length of Visible Light 9h 42m
Length of Day
8h 29m
Last Quarter, 38% of the Moon is Illuminated
Dec 7
Last Quarter
Dec 13
New
Dec 19
First Quarter
Dec 28
Full
Jan 4
Last Quarter

Hourly Weather History & Observations

Time (MST) Temp. Windchill Dew Point Humidity Pressure Visibility Wind Dir Wind Speed Gust Speed Precip Events Conditions
12:53 AM 15.1 °F 5.2 °F 12.0 °F 88% 30.00 in 10.0 mi ENE 6.9 mph - N/A   Clear
1:53 AM 15.1 °F 4.2 °F 12.0 °F 88% 30.01 in 10.0 mi East 8.1 mph - N/A   Clear
2:03 AM 15.8 °F 4.2 °F 12.2 °F 86% 29.92 in 9.0 mi ENE 9.2 mph - N/A   Scattered Clouds
2:12 AM 15.8 °F 3.4 °F 14.0 °F 93% 29.92 in 2.5 mi ENE 10.4 mph - N/A   Mostly Cloudy
2:24 AM 17.6 °F 4.3 °F 15.8 °F 93% 29.93 in 1.5 mi ENE 12.7 mph - N/A   Overcast
2:49 AM 17.6 °F 4.3 °F 15.8 °F 93% 29.93 in 1.0 mi East 12.7 mph - N/A   Overcast
2:53 AM 17.1 °F 3.6 °F 16.0 °F 96% 30.01 in 1.0 mi East 12.7 mph - N/A   Overcast
3:12 AM 17.6 °F 4.3 °F 15.8 °F 93% 29.93 in 1.5 mi ENE 12.7 mph - N/A   Overcast
3:33 AM 17.6 °F 3.7 °F 15.8 °F 93% 29.92 in 2.0 mi ENE 13.8 mph - N/A   Overcast
3:43 AM 17.6 °F 4.3 °F 15.8 °F 93% 29.92 in 1.5 mi ENE 12.7 mph - N/A   Overcast
3:51 AM 17.6 °F 6.4 °F 15.8 °F 93% 29.92 in 3.0 mi ENE 9.2 mph - N/A   Overcast
3:53 AM 18.0 °F 6.9 °F 16.0 °F 92% 30.01 in 4.0 mi ENE 9.2 mph - N/A   Overcast
4:10 AM 17.6 °F 5.0 °F 15.8 °F 93% 29.92 in 1.8 mi East 11.5 mph - N/A   Overcast
4:53 AM 18.0 °F 6.1 °F 17.1 °F 96% 30.02 in 1.8 mi East 10.4 mph - N/A   Overcast
5:02 AM 17.6 °F 5.7 °F 17.6 °F 100% 29.93 in 2.0 mi East 10.4 mph - N/A   Overcast
5:26 AM 17.6 °F 4.3 °F 15.8 °F 93% 29.93 in 1.5 mi ENE 12.7 mph - N/A   Overcast
5:37 AM 17.6 °F 5.7 °F 15.8 °F 93% 29.93 in 2.5 mi ENE 10.4 mph - N/A   Overcast
5:53 AM 18.0 °F 5.4 °F 17.1 °F 96% 30.02 in 2.5 mi East 11.5 mph - N/A   Overcast
6:34 AM 17.6 °F 4.3 °F 15.8 °F 93% 29.93 in 3.0 mi East 12.7 mph - N/A   Overcast
6:53 AM 18.0 °F 6.1 °F 16.0 °F 92% 30.04 in 4.0 mi ENE 10.4 mph - N/A   Overcast
7:53 AM 18.0 °F 5.4 °F 16.0 °F 92% 30.05 in 3.0 mi East 11.5 mph - N/A   Overcast
8:05 AM 17.6 °F 4.3 °F 15.8 °F 93% 29.94 in 2.5 mi ENE 12.7 mph - N/A   Overcast
8:17 AM 17.6 °F 5.0 °F 15.8 °F 93% 29.94 in 3.0 mi ENE 11.5 mph - N/A   Overcast
8:53 AM 18.0 °F 4.2 °F 16.0 °F 92% 30.06 in 3.0 mi East 13.8 mph - N/A   Overcast
9:53 AM 19.0 °F 6.1 °F 17.1 °F 92% 30.06 in 3.0 mi East 12.7 mph - N/A   Overcast
10:09 AM 19.4 °F 8.6 °F 17.6 °F 93% 29.95 in 2.5 mi East 9.2 mph - N/A   Overcast
10:27 AM 19.4 °F 6.0 °F 17.6 °F 93% 29.94 in 3.0 mi East 13.8 mph - N/A   Overcast
10:53 AM 19.9 °F 8.6 °F 18.0 °F 92% 30.04 in 3.0 mi East 10.4 mph - N/A   Overcast
11:53 AM 19.9 °F 8.6 °F 17.1 °F 89% 30.03 in 4.0 mi East 10.4 mph - N/A   Overcast
12:53 PM 19.9 °F 6.7 °F 17.1 °F 89% 30.00 in 5.0 mi ENE 13.8 mph - N/A   Overcast
1:37 PM 19.4 °F 6.6 °F 17.6 °F 93% 29.88 in 1.8 mi East 12.7 mph - 0.00 in Snow Light Snow
1:53 PM 19.9 °F 11.1 °F 18.0 °F 92% 29.99 in 1.2 mi East 6.9 mph - 0.00 in Snow Light Snow
2:21 PM 19.4 °F 9.5 °F 17.6 °F 93% 29.88 in 0.8 mi East 8.1 mph - 0.00 in Snow Light Snow
2:48 PM 21.2 °F 11.7 °F 17.6 °F 86% 29.87 in 0.5 mi East 8.1 mph - 0.00 in Fog , Snow Snow
2:53 PM 19.9 °F 9.3 °F 18.0 °F 92% 29.97 in 0.2 mi East 9.2 mph - 0.01 in Fog , Snow Snow
3:24 PM 21.2 °F 10.1 °F 17.6 °F 86% 29.86 in 0.5 mi ENE 10.4 mph - 0.00 in Fog , Snow Snow
3:38 PM 21.2 °F 10.1 °F 17.6 °F 86% 29.86 in 1.2 mi ENE 10.4 mph - 0.00 in Snow Light Snow
3:49 PM 21.2 °F 10.9 °F 17.6 °F 86% 29.86 in 3.0 mi ENE 9.2 mph - 0.00 in Snow Light Snow
3:53 PM 21.0 °F 10.6 °F 18.0 °F 88% 29.96 in 3.0 mi East 9.2 mph - 0.00 in Snow Light Snow
4:19 PM 21.2 °F 12.6 °F 19.4 °F 93% 29.86 in 5.0 mi ENE 6.9 mph - 0.00 in   Overcast
4:53 PM 21.0 °F 12.4 °F 19.0 °F 92% 29.96 in 7.0 mi NE 6.9 mph - 0.00 in   Overcast
5:09 PM 21.2 °F 12.6 °F 17.6 °F 86% 29.85 in 8.0 mi ENE 6.9 mph - N/A   Overcast
5:53 PM 19.4 °F 11.5 °F 17.6 °F 93% 29.84 in 7.0 mi NE 5.8 mph - N/A   Overcast
6:14 PM 19.4 °F 10.4 °F 17.6 °F 93% 29.83 in 8.0 mi ENE 6.9 mph - N/A   Overcast
6:53 PM 21.0 °F 11.4 °F 18.0 °F 88% 29.92 in 7.0 mi ENE 8.1 mph - N/A   Overcast
7:53 PM 21.0 °F 12.4 °F 19.0 °F 92% 29.91 in 7.0 mi ENE 6.9 mph - N/A   Overcast
8:53 PM 21.0 °F 10.6 °F 18.0 °F 88% 29.88 in 6.0 mi East 9.2 mph - N/A   Overcast
9:53 PM 19.9 °F 8.6 °F 18.0 °F 92% 29.87 in 6.0 mi ENE 10.4 mph - N/A   Overcast
10:53 PM 19.9 °F 9.3 °F 17.1 °F 89% 29.86 in 5.0 mi ENE 9.2 mph - N/A   Overcast
11:53 PM 19.9 °F 8.6 °F 18.0 °F 92% 29.84 in 3.0 mi ENE 10.4 mph - N/A   Overcast